Location: Augirein
(42.9320°N, 0.9181°E)
Time: 02:44:14
(UTC+00:00)

USA 229 - Pass Details

Date: 20 June 2021
Orbit: 956 x 1256 km, 63.5° (Epoch: 25 July)

Event Time Altitude Azimuth Distance (km) Brightness Sun altitude
Exits shadow 00:22:33 47° 202° (SSW) 1,288 3.7 -23.4°
Maximum altitude 00:24:32 80° 124° (SE) 1,027 3.5 -23.3°
Drops below altitude 10° 00:31:19 10° 38° (NE) 2,892 6.8 -23.2°
Sets 00:34:03 0° 37° (NE) 3,895 7.6 -23.1°
